EW2441 Weather Reports


time (UTC)temp
C
wind
direction
speed
KPH
gust
KPH
rain 1hr
cm
rain 24hr
cm
rain mn
cm
humidity
%
barometer
mb
20260506111505 7 308 3.2 6.4 0.00 4.11 1.42 94 1008.5
20260506104505 7 336 0.0 3.2 0.03 4.11 1.42 94 1007.3
20260506101504 7 357 0.0 3.2 0.13 4.11 1.42 94 1006.7
20260506100005 7 309 0.0 1.6 0.18 4.11 1.42 94 1007.4
20260506094505 7 280 0.0 4.8 0.15 4.09 1.40 94 1008.0
20260506093005 7 332 0.0 3.2 0.15 4.04 1.35 94 1007.8
20260506091504 7 345 0.0 3.2 0.18 3.99 1.30 94 1007.8
20260506090005 7 315 0.0 4.8 0.23 3.94 1.24 94 1007.3
20260506084505 7 334 1.6 6.4 0.33 3.94 1.24 94 1007.3
20260506083005 7 343 3.2 9.7 0.38 3.89 1.19 93 1007.5
20260506071505 7 313 1.6 9.7 0.23 3.38 0.69 93 1007.1
20260506044505 8 317 0.0 6.4 0.15 2.79 0.10 94 1007.9
20260506043006 8 320 1.6 6.4 0.20 2.79 0.10 94 1008.1
20260506041504 9 322 1.6 9.7 0.20 2.74 0.05 94 1008.3
20260506034504 9 328 1.6 4.8 0.28 2.64 2.64 94 1008.5
20260506033005 9 240 1.6 4.8 0.41 2.59 2.59 94 1008.9
20260506031505 9 264 0.0 1.6 0.58 2.54 2.54 94 1009.0
20260506030005 9 241 1.6 3.2 0.64 2.49 2.49 94 1009.1
20260506024505 9 273 1.6 4.8 0.64 2.36 2.36 94 1008.5
20260506023005 9 6 1.6 3.2 0.61 2.18 2.18 94 1008.3
20260506021504 9 332 1.6 4.8 0.56 1.93 1.93 94 1008.3
20260506020005 9 343 0.0 3.2 0.61 1.85 1.85 94 1008.1
20260506014504 9 239 0.0 1.6 0.51 1.73 1.73 94 1008.2
20260506013005 9 341 0.0 3.2 0.36 1.57 1.57 94 1008.1
20260506011504 9 343 0.0 3.2 0.15 1.37 1.37 93 1007.9
20260506010005 9 8 0.0 1.6 0.08 1.24 1.24 93 1007.7
20260506004504 9 2 1.6 3.2 0.20 1.22 1.22 93 1007.8
20260506003006 9 352 1.6 6.4 0.30 1.22 1.22 93 1007.8
20260506001504 10 330 0.0 4.8 0.61 1.22 1.22 93 1007.6
20260506000005 10 326 0.0 3.2 0.76 1.17 1.17 92 1007.9
20260505234505 10 296 1.6 4.8 0.64 1.02 1.02 92 1008.1
20260505230005 11 325 3.2 8.0 0.05 0.41 0.41 92 1007.5
20260505224504 11 336 1.6 9.7 0.03 0.38 0.38 91 1007.5
20260505223004 12 340 3.2 11.3 0.00 0.36 0.36 90 1007.6
20260505214504 14 278 0.0 3.2 0.20 0.36 0.36 91 1007.4
20260505211504 15 267 1.6 4.8 0.13 0.15 0.15 89 1007.4
20260505210006 15 289 1.6 6.4 0.13 0.15 0.15 86 1007.2
20260505203005 16 300 3.2 12.9 0.00 0.03 0.03 78 1007.1
20260505201504 17 302 1.6 6.4 0.00 0.03 0.03 76 1007.0
20260505200004 17 298 0.0 3.2 0.00 0.03 0.03 74 1007.0
20260505194504 17 227 1.6 6.4 0.00 0.03 0.03 76 1007.1
20260505193004 17 266 1.6 3.2 0.00 0.03 0.03 76 1007.1
20260505191503 17 243 1.6 6.4 0.00 0.03 0.03 75 1007.5
20260505190005 17 248 3.2 12.9 0.00 0.03 0.03 70 1007.7
20260505184504 18 244 6.4 19.3 0.00 0.03 0.03 64 1007.7
20260505183006 18 270 3.2 12.9 0.00 0.03 0.03 64 1007.7
20260505181504 18 264 3.2 17.7 0.00 0.03 0.03 62 1007.6
20260505180005 18 253 4.8 9.7 0.00 0.03 0.03 61 1007.4
20260505174504 19 250 6.4 20.9 0.00 0.03 0.03 59 1007.4
20260505173004 20 275 6.4 17.7 0.00 0.03 0.03 59 1007.2
20260505171505 20 258 8.0 19.3 0.00 0.03 0.03 58 1007.1
20260505170005 20 252 6.4 24.1 0.00 0.03 0.03 57 1007.1
20260505163005 20 246 6.4 19.3 0.00 0.03 0.03 57 1006.9
20260505161504 21 224 9.7 24.1 0.00 0.03 0.03 55 1006.8
20260505153004 20 239 8.0 25.7 0.00 0.03 0.03 59 1006.5
20260505123004 15 232 1.6 9.7 0.00 0.00 0.00 80 1006.0
20260505121504 15 285 1.6 4.8 0.00 0.00 0.00 78 1006.0
20260505120005 16 189 3.2 12.9 0.00 0.00 0.00 74 1005.5
20260505114504 16 209 4.8 17.7 0.00 0.00 0.00 70 1005.8
20260505113005 17 226 4.8 16.1 0.00 0.00 0.00 67 1005.3